HEBOWX Weather Reports


Display with metric or nautical units.
time (UTC)temp
F
wind
direction
speed
MPH
gust
MPH
rain 1hr
in
rain 24hr
in
rain mn
in
humidity
%
barometer
mb
20260504025524 66 338 2.0 4.0 0.00 0.00 0.00 27 1008.3
20260504025024 66 338 2.0 4.0 0.00 0.00 0.00 27 1008.3
20260504024524 66 322 1.0 4.0 0.00 0.00 0.00 26 1008.4
20260504024024 67 306 2.0 5.0 0.00 0.00 0.00 26 1008.3
20260504023524 67 316 2.0 5.0 0.00 0.00 0.00 26 1008.4
20260504023024 67 327 3.0 5.0 0.00 0.00 0.00 25 1008.3
20260504022524 68 320 3.0 4.0 0.00 0.00 0.00 25 1008.4
20260504022024 68 326 2.0 4.0 0.00 0.00 0.00 25 1008.4
20260504021524 68 329 3.0 4.0 0.00 0.00 0.00 25 1008.4
20260504021024 68 310 2.0 4.0 0.00 0.00 0.00 24 1008.4
20260504020526 69 323 2.0 3.0 0.00 0.00 0.00 24 1008.4
20260504020024 69 326 2.0 3.0 0.00 0.00 0.00 22 1008.4
20260504015524 69 337 1.0 3.0 0.00 0.00 0.00 22 1008.5
20260504015024 70 331 2.0 4.0 0.00 0.00 0.00 21 1008.5
20260504014524 70 324 2.0 4.0 0.00 0.00 0.00 22 1008.6
20260504014024 70 338 2.0 4.0 0.00 0.00 0.00 21 1008.6
20260504013528 70 337 2.0 4.0 0.00 0.00 0.00 21 1008.6
20260504013025 70 323 2.0 3.0 0.00 0.00 0.00 20 1008.6
20260504012524 70 331 1.0 4.0 0.00 0.00 0.00 21 1008.7
20260504012025 70 323 1.0 4.0 0.00 0.00 0.00 21 1008.7
20260504011524 70 344 1.0 4.0 0.00 0.00 0.00 21 1008.6
20260504011024 70 320 2.0 4.0 0.00 0.00 0.00 21 1008.7
20260504010524 71 327 2.0 4.0 0.00 0.00 0.00 22 1008.7
20260504010024 71 306 2.0 4.0 0.00 0.00 0.00 22 1008.8
20260504005524 71 327 1.0 4.0 0.00 0.00 0.00 23 1008.8
20260504005026 71 345 1.0 4.0 0.00 0.00 0.00 22 1008.8
20260504004524 71 344 1.0 4.0 0.00 0.00 0.00 22 1008.9
20260504004024 71 323 2.0 3.0 0.00 0.00 0.00 23 1008.9
20260504003524 71 333 1.0 3.0 0.00 0.00 0.00 23 1008.9
20260504003024 71 324 1.0 3.0 0.00 0.00 0.00 23 1009.1
20260504002524 72 324 2.0 3.0 0.00 0.00 0.00 22 1008.9
20260504002024 72 316 1.0 3.0 0.00 0.00 0.00 23 1009.1
20260504001524 72 330 1.0 3.0 0.00 0.00 0.00 24 1008.9
20260504001024 72 337 1.0 5.0 0.00 0.00 0.00 23 1008.9
20260504000524 72 341 0.0 5.0 0.00 0.00 0.00 24 1008.9
20260504000024 72 294 1.0 5.0 0.00 0.00 0.00 23 1009.1
20260503235524 72 341 2.0 3.0 0.00 0.00 0.00 22 1009.1
20260503235024 72 324 0.0 2.0 0.00 0.00 0.00 23 1009.1
20260503234524 72 323 0.0 4.0 0.00 0.00 0.00 23 1009.2
20260503234025 72 329 1.0 4.0 0.00 0.00 0.00 22 1009.3
20260503233524 73 313 0.0 4.0 0.00 0.00 0.00 23 1009.3
20260503233024 73 343 1.0 2.0 0.00 0.00 0.00 23 1009.3
20260503232524 73 315 0.0 2.0 0.00 0.00 0.00 24 1009.3
20260503232024 73 345 0.0 4.0 0.00 0.00 0.00 24 1009.3
20260503231524 73 340 0.0 4.0 0.00 0.00 0.00 24 1009.4
20260503231024 73 44 0.0 4.0 0.00 0.00 0.00 24 1009.4
20260503230524 74 0 1.0 2.0 0.00 0.00 0.00 24 1009.4
20260503230024 74 296 0.0 2.0 0.00 0.00 0.00 23 1009.5
20260503225524 74 323 0.0 3.0 0.00 0.00 0.00 23 1009.6
20260503225024 74 5 1.0 3.0 0.00 0.00 0.00 23 1009.7
20260503224524 74 291 0.0 3.0 0.00 0.00 0.00 24 1009.7
20260503224024 75 352 0.0 2.0 0.00 0.00 0.00 23 1009.7
20260503223524 75 260 0.0 2.0 0.00 0.00 0.00 24 1009.8
20260503223024 75 273 0.0 4.0 0.00 0.00 0.00 23 1009.8
20260503222524 75 350 0.0 4.0 0.00 0.00 0.00 23 1009.9
20260503222025 75 301 0.0 4.0 0.00 0.00 0.00 23 1009.9
20260503221524 75 268 1.0 7.0 0.00 0.00 0.00 24 1010.1
20260503221024 75 281 1.0 7.0 0.00 0.00 0.00 24 1010.2
20260503220524 75 277 4.0 7.0 0.00 0.00 0.00 23 1010.1
20260503220024 75 264 4.0 7.0 0.00 0.00 0.00 23 1010.1
20260503215524 75 254 2.0 7.0 0.00 0.00 0.00 22 1010.2
20260503215024 75 257 0.0 7.0 0.00 0.00 0.00 20 1010.3
20260503214524 75 49 0.0 2.0 0.00 0.00 0.00 18 1010.3
20260503214024 75 60 0.0 2.0 0.00 0.00 0.00 19 1010.3
20260503213526 75 0 0.0 0.0 0.00 0.00 0.00 21 1010.3
20260503213025 75 0 0.0 0.0 0.00 0.00 0.00 19 1010.4
20260503212524 75 0 0.0 0.0 0.00 0.00 0.00 19 1010.4
20260503212024 75 0 0.0 0.0 0.00 0.00 0.00 20 1010.4
20260503211524 75 0 0.0 2.0 0.00 0.00 0.00 19 1010.4
20260503211024 75 0 0.0 2.0 0.00 0.00 0.00 18 1010.4
20260503210525 75 16 0.0 2.0 0.00 0.00 0.00 18 1010.4
20260503210024 74 0 0.0 2.0 0.00 0.00 0.00 17 1010.5
20260503205524 75 22 0.0 2.0 0.00 0.00 0.00 17 1010.6
20260503205024 75 51 0.0 2.0 0.00 0.00 0.00 17 1010.6
20260503204524 75 0 0.0 2.0 0.00 0.00 0.00 18 1010.6
20260503204024 75 100 0.0 2.0 0.00 0.00 0.00 18 1010.6
20260503203524 74 60 0.0 4.0 0.00 0.00 0.00 18 1010.7
20260503203024 75 51 0.0 4.0 0.00 0.00 0.00 17 1010.7
20260503202524 74 42 0.0 4.0 0.00 0.00 0.00 18 1010.7
20260503202024 74 140 0.0 6.0 0.00 0.00 0.00 18 1010.7
20260503201524 74 5 0.0 6.0 0.00 0.00 0.00 19 1010.7
20260503201024 74 22 0.0 6.0 0.00 0.00 0.00 18 1010.7
20260503200524 74 65 0.0 5.0 0.00 0.00 0.00 19 1010.8
20260503200024 74 117 0.0 3.0 0.00 0.00 0.00 18 1010.8
20260503195524 74 40 1.0 3.0 0.00 0.00 0.00 20 1010.9
20260503195024 74 44 0.0 3.0 0.00 0.00 0.00 20 1010.8
20260503194524 74 102 1.0 4.0 0.00 0.00 0.00 20 1010.9
20260503194024 74 15 0.0 4.0 0.00 0.00 0.00 20 1010.9
20260503193524 73 88 0.0 4.0 0.00 0.00 0.00 20 1010.9
20260503193024 73 113 2.0 4.0 0.00 0.00 0.00 20 1010.9
20260503192523 73 51 0.0 4.0 0.00 0.00 0.00 22 1010.9
20260503192024 73 35 0.0 2.0 0.00 0.00 0.00 21 1010.9
20260503191523 73 357 1.0 1.0 0.00 0.00 0.00 21 1010.9
20260503191024 73 67 0.0 5.0 0.00 0.00 0.00 22 1011.1
20260503190523 73 56 0.0 5.0 0.00 0.00 0.00 23 1010.9
20260503190023 72 113 0.0 5.0 0.00 0.00 0.00 24 1010.9
20260503185523 72 37 2.0 5.0 0.00 0.00 0.00 23 1010.9
20260503185024 72 44 0.0 5.0 0.00 0.00 0.00 24 1010.9
20260503184524 72 89 0.0 5.0 0.00 0.00 0.00 25 1010.9
20260503184024 72 58 2.0 5.0 0.00 0.00 0.00 25 1010.9
20260503183524 72 65 1.0 4.0 0.00 0.00 0.00 25 1010.9
20260503183024 71 56 0.0 4.0 0.00 0.00 0.00 25 1010.9
20260503182523 71 96 0.0 4.0 0.00 0.00 0.00 26 1010.9
20260503182024 71 88 1.0 3.0 0.00 0.00 0.00 26 1010.9
20260503181523 71 49 0.0 3.0 0.00 0.00 0.00 26 1010.9
20260503181023 71 102 1.0 3.0 0.00 0.00 0.00 26 1010.9
20260503180524 70 119 0.0 6.0 0.00 0.00 0.00 25 1010.9
20260503180026 70 116 0.0 6.0 0.00 0.00 0.00 26 1010.8
20260503175523 70 119 0.0 6.0 0.00 0.00 0.00 27 1010.9
20260503175024 70 109 0.0 4.0 0.00 0.00 0.00 26 1010.8
20260503174523 69 123 1.0 7.0 0.00 0.00 0.00 27 1010.8
20260503174023 69 117 2.0 7.0 0.00 0.00 0.00 28 1010.7
20260503173525 69 210 0.0 7.0 0.00 0.00 0.00 28 1010.7
20260503173023 69 112 3.0 7.0 0.00 0.00 0.00 28 1010.7
20260503172523 69 112 2.0 7.0 0.00 0.00 0.00 28 1010.7
20260503172024 68 8 3.0 8.0 0.00 0.00 0.00 29 1010.7
20260503171523 68 130 1.0 8.0 0.00 0.00 0.00 28 1010.7
20260503171023 68 100 1.0 8.0 0.00 0.00 0.00 29 1010.6
20260503170523 67 112 3.0 7.0 0.00 0.00 0.00 29 1010.6
20260503150523 62 98 4.0 9.0 0.00 0.00 0.00 34 1010.5
20260503131212 60 36 5.0 11.0 0.00 0.00 0.00 37 1010.2
20260503131023 60 36 5.0 11.0 0.00 0.00 0.00 37 1010.2
20260503130523 60 26 5.0 11.0 0.00 0.00 0.00 38 1010.2
20260503110523 60 29 3.0 8.0 0.00 0.00 0.00 44 1010.6
20260503081522 59 63 3.0 7.0 0.00 0.00 0.00 45 1011.4
20260503081022 59 92 2.0 7.0 0.00 0.00 0.00 45 1011.4
20260503080523 59 64 2.0 7.0 0.00 0.00 0.00 44 1011.3
20260503072522 59 106 1.0 6.0 0.00 0.00 0.00 45 1011.4
20260503072022 59 49 2.0 6.0 0.00 0.00 0.00 45 1011.5
20260503071522 59 35 2.0 6.0 0.00 0.00 0.00 45 1011.5
20260503071022 59 47 2.0 6.0 0.00 0.00 0.00 45 1011.5
20260503070522 59 25 2.0 4.0 0.00 0.00 0.00 43 1011.6
20260503055022 58 117 0.0 4.0 0.00 0.00 0.00 45 1011.6
20260503054522 58 106 1.0 8.0 0.00 0.00 0.00 45 1011.4
20260503054023 58 50 2.0 8.0 0.00 0.00 0.00 46 1011.4
20260503053522 58 49 2.0 8.0 0.00 0.00 0.00 46 1011.5
20260503053022 58 116 2.0 6.0 0.00 0.00 0.00 46 1011.5
20260503052523 58 85 1.0 4.0 0.00 0.00 0.00 45 1011.5
20260503052022 58 357 0.0 8.0 0.00 0.00 0.00 45 1011.5
20260503051522 58 147 2.0 8.0 0.00 0.00 0.00 45 1011.5
20260503051056 58 54 1.0 8.0 0.00 0.00 0.00 46 1011.5
20260503051022 58 54 1.0 8.0 0.00 0.00 0.00 46 1011.5
20260503050522 58 92 3.0 6.0 0.00 0.00 0.00 47 1011.5
20260503050022 58 131 1.0 6.0 0.00 0.00 0.00 48 1011.5
20260503045522 57 137 1.0 6.0 0.00 0.00 0.00 50 1011.5
20260503045022 58 107 3.0 6.0 0.00 0.00 0.00 51 1011.5
20260503044522 58 126 2.0 6.0 0.00 0.00 0.00 52 1011.5
20260503044022 58 109 2.0 6.0 0.00 0.00 0.00 51 1011.5
20260503043522 58 113 2.0 6.0 0.00 0.00 0.00 51 1011.4
20260503043022 58 128 2.0 5.0 0.00 0.00 0.00 51 1011.4
20260503042522 58 106 1.0 7.0 0.00 0.00 0.00 51 1011.3
20260503042022 58 43 2.0 7.0 0.00 0.00 0.00 51 1011.3
20260503041522 58 112 2.0 7.0 0.00 0.00 0.00 52 1011.2
20260503041022 58 43 4.0 11.0 0.00 0.00 0.00 52 1011.5
20260503040522 57 40 4.0 11.0 0.00 0.00 0.00 52 1010.9
20260503040022 57 60 4.0 11.0 0.00 0.00 0.00 52 1011.4
20260503035523 57 39 5.0 10.0 0.00 0.00 0.00 52 1010.8
20260503035022 57 50 4.0 9.0 0.00 0.00 0.00 53 1010.8
20260503034522 57 67 6.0 9.0 0.00 0.00 0.00 53 1010.7
20260503034023 57 42 5.0 9.0 0.00 0.00 0.00 54 1010.8
20260503033522 56 65 4.0 9.0 0.00 0.00 0.00 55 1010.6
20260503033022 56 123 5.0 9.0 0.00 0.00 0.00 57 1010.7
20260503032522 56 99 4.0 8.0 0.00 0.00 0.00 60 1010.6
20260503032022 55 123 5.0 7.0 0.00 0.00 0.00 62 1010.6
20260503031522 55 106 3.0 6.0 0.00 0.00 0.00 62 1010.6
20260503031022 56 72 3.0 5.0 0.00 0.00 0.00 62 1010.7
20260503030522 56 33 3.0 3.0 0.00 0.00 0.00 61 1010.5
20260503030022 57 95 1.0 3.0 0.00 0.00 0.00 59 1010.8